[[{"header":{"parameterUnit":"m.s-1","parameterCategory":1,"la1":30.2991,"la2":30.254,"lo1":-89.0895,"lo2":-89.0444,"dy":0.0017,"dx":0.0017,"nx":28,"ny":28,"refTime":"2024-10-13T21:00:00:Z","depth":0,"parameterNumber":2,"parameterNumberName":"U-component_of_WINDS"},"data":[0,0,0,0,0,0,0,0,0,0,0,0,0,0,0,0,0,0,0,0,0,0,0,0,0,0,0,0,0,0,0,0,0,0,0,0,0,0,0,0,0,0,0,0,0,0,0,0,0,0,0,0,0,0,0,0,0,0,2.2028,2.2029,0,2.2109,2.211,2.2111,2.2073,2.2071,2.2069,2.2067,2.2155,2.216,2.2164,0,0,0,0,0,0,0,0,0,0,0,0,0,2.1849,2.1853,2.2028,2.2029,2.203,2.2109,2.211,2.2111,2.2073,2.2071,2.2068,2.2066,2.2154,2.2159,2.2164,0,0,0,0,0,0,0,0,0,0,0,0,0,2.1928,2.1854,2.2028,2.202,2.2021,2.2108,2.211,2.2111,2.2074,2.207,2.2067,2.2065,2.2152,2.2159,2.2165,2.2267,0,0,2.2185,2.2187,0,0,0,0,0,0,0,0,2.1924,2.1935,2.2021,2.2021,2.2021,2.2077,2.2079,2.2164,2.2074,2.2054,2.2067,2.2063,2.2132,2.214,2.2162,2.2271,2.2275,2.2185,2.2189,2.2192,2.2194,0,0,0,0,0,0,0,2.1918,2.1931,2.206,2.2022,2.2022,2.2016,2.2024,2.2095,2.211,2.2055,2.2053,2.2062,2.2132,2.2156,2.2164,2.2276,2.2185,2.2191,2.2195,2.2197,2.2477,2.248,0,0,0,0,0,0,2.1912,2.1927,2.2058,2.2063,2.1964,2.2022,2.203,2.2063,2.2109,2.2113,2.2065,2.206,2.2147,2.2157,2.2167,2.2292,2.2192,2.2198,2.2202,2.2473,2.2478,2.2481,0,0,0,0,0,0,2.1908,2.1924,2.2054,2.1994,2.201,2.2028,2.2065,2.2066,2.209,2.2116,2.2119,2.2086,2.2145,2.2158,2.2243,2.2295,2.2201,2.2207,2.2469,2.2475,2.248,2.2541,0,0,0,0,0,0,2.1903,2.1923,2.196,2.1995,2.2013,2.2126,2.2068,2.207,2.21,2.2095,2.2137,2.2141,2.2143,2.2233,2.2249,2.2302,2.2212,2.2465,2.2472,2.2478,2.2535,2.2548,2.2559,0,0,0,0,0,2.1897,2.1974,2.1962,2.1978,2.2059,2.2129,2.214,2.2139,2.2105,2.2143,2.2161,2.214,2.2286,2.2242,2.226,2.2315,2.2461,2.247,2.2477,2.2529,2.2545,2.2559,0,0,0,0,0,0,2.1945,2.1978,2.1965,2.2055,2.2089,2.2122,2.2171,2.2156,2.2202,2.2195,2.2195,2.2205,2.2293,2.2312,2.2263,2.2418,2.2369,2.2381,2.2402,2.2418,2.243,2.2424,2.2217,0,0,0,0,0,2.1966,2.2017,2.2045,2.2122,2.214,2.2153,2.2183,2.218,2.2216,2.2231,2.2254,2.2292,2.2348,2.2384,2.2435,2.2537,2.2548,2.2584,2.2597,2.2607,2.2618,2.2677,2.2694,2.2508,2.2508,2.2508,0,0,2.201,2.2034,2.2067,2.2132,2.2158,2.2215,2.2165,2.2226,2.2269,2.2241,2.2322,2.2341,2.2384,2.2479,2.2522,2.2498,2.2672,2.2617,2.2625,2.263,2.2687,2.2705,2.272,2.2513,2.2512,2.2511,0,0,2.2119,2.2141,2.2209,2.2237,2.2278,2.2286,2.2303,2.2339,2.235,2.2432,2.2413,2.2466,2.2559,2.2592,2.262,2.2746,2.273,2.2764,2.2829,2.2887,2.2901,2.2914,2.2962,2.2979,2.2774,2.2774,2.2774,0,2.2169,2.2251,2.2247,2.231,2.2341,2.2318,2.2389,2.2417,2.2473,2.2496,2.2468,2.2588,2.2615,2.2719,2.275,2.2773,2.2795,2.2759,2.2899,2.2912,2.2924,2.297,2.2988,2.2778,2.2778,2.2777,2.2777,0,2.2312,2.237,2.242,2.2474,2.2511,2.2578,2.2588,2.2626,2.2621,2.2634,2.272,2.2751,2.2811,2.2835,2.283,2.294,2.2924,2.2898,2.2848,2.2946,2.2989,2.3007,2.2784,2.2782,2.2781,2.278,0,0,2.2452,2.2505,2.2524,2.2549,2.2594,2.264,2.2708,2.2765,2.28,2.284,2.2899,2.2981,2.2958,2.2991,2.299,2.3041,2.3143,2.3009,2.301,2.3035,2.327,2.329,2.331,2.3132,2.3135,2.3138,2.3267,0,2.2566,2.2682,2.2683,2.2792,2.2848,2.2828,2.2888,2.2924,2.2939,2.299,2.3007,2.3066,2.3029,2.305,2.3099,2.312,2.319,2.311,2.3191,2.3194,2.3182,2.3332,2.3354,2.3474,2.3283,2.3286,2.3288,0,2.2714,2.2759,2.2873,2.2913,2.2936,2.299,2.3044,2.3093,2.3135,2.3142,2.3181,2.3174,2.3247,2.3195,2.3298,2.3244,2.3277,2.3293,2.3298,2.3306,2.3248,2.3347,2.3512,2.353,2.3314,2.3312,2.331,0,2.2808,2.2897,2.2978,2.3,2.3048,2.3087,2.3109,2.3148,2.3183,2.3232,2.3256,2.3313,2.3345,2.3391,2.3401,2.3361,2.3506,2.3453,2.3517,2.3517,2.3549,2.3547,2.3723,2.3567,2.3567,2.3567,2.3566,0,2.2936,2.3007,2.3021,2.3071,2.3152,2.3154,2.3235,2.3254,2.329,2.3346,2.3333,2.3386,2.3395,2.3452,2.3461,2.3547,2.3561,2.3572,2.3573,2.3574,2.3573,2.3596,2.3589,2.3572,2.3571,2.357,2.3569,0,2.3054,2.3066,2.3153,2.3192,2.3204,2.3262,2.3297,2.3346,2.336,2.3432,2.3449,2.3472,2.3539,2.3553,2.3632,2.3638,2.3742,2.3734,2.3727,2.3727,2.3791,2.3785,2.3989,2.4017,2.3842,2.3843,2.3845,0,2.3135,2.319,2.3235,2.3271,2.3295,2.3353,2.339,2.3395,2.3434,2.3488,2.3533,2.3597,2.3649,2.3757,2.3783,2.3845,2.384,2.3908,2.3849,2.3849,2.3844,2.3842,2.3849,2.3919,2.3921,2.3922,2.3924,0,2.328,2.3284,2.3336,2.3392,2.3436,2.348,2.3522,2.3553,2.3565,2.361,2.3677,2.3718,2.3799,2.3865,2.3927,2.3954,2.3943,2.3942,2.396,2.3962,2.3956,2.3963,2.3759,2.3937,2.3936,2.3935,2.3934,2.3933,2.3384,2.3434,2.3474,2.3534,2.3566,2.3607,2.3656,2.3677,2.3733,2.3798,2.3799,2.3873,2.3918,2.4001,2.4031,2.4092,2.4071,2.4097,2.4104,2.4111,2.4118,2.3946,2.4103,2.4102,2.4102,2.4102,2.4101,0,2.3531,2.3556,2.3611,2.3671,2.3719,2.3702,2.3749,2.3792,2.3857,2.3899,2.3951,2.403,2.4095,2.4127,2.4192,2.4235,2.4232,2.4252,2.425,2.4257,2.4131,2.411,2.4254,2.4254,2.4254,2.4254,2.4254,2.4254,2.3612,2.3696,2.3705,2.3806,2.3832,2.3903,2.3932,2.3971,2.4005,2.4094,2.4147,2.4167,2.4207,2.4275,2.4335,2.4343,2.4369,2.4393,2.4399,2.4281,2.4265,2.4251,2.4231,2.4398,2.4398,2.452,2.4521,2.4522]},{"header":{"parameterUnit":"m.s-1","parameterCategory":1,"la1":30.2991,"la2":30.254,"lo1":-89.0895,"lo2":-89.0444,"dy":0.0017,"dx":0.0017,"nx":28,"ny":28,"refTime":"2024-10-13T21:00:00:Z","depth":0,"parameterNumber":3,"parameterNumberName":"V-component_of_WINDS"},"data":[0,0,0,0,0,0,0,0,0,0,0,0,0,0,0,0,0,0,0,0,0,0,0,0,0,0,0,0,0,0,0,0,0,0,0,0,0,0,0,0,0,0,0,0,0,0,0,0,0,0,0,0,0,0,0,0,0,0,0.5811,0.5811,0,0.5882,0.5883,0.5884,0.5832,0.583,0.5828,0.5826,0.59,0.5904,0.5908,0,0,0,0,0,0,0,0,0,0,0,0,0,0.5628,0.5632,0.5811,0.5811,0.5812,0.5882,0.5883,0.5884,0.5833,0.583,0.5827,0.5825,0.5898,0.5903,0.5908,0,0,0,0,0,0,0,0,0,0,0,0,0,0.5705,0.5633,0.581,0.5795,0.5795,0.5882,0.5883,0.5884,0.5833,0.583,0.5826,0.5823,0.5897,0.5903,0.5909,0.6015,0,0,0.5928,0.593,0,0,0,0,0,0,0,0,0.57,0.5711,0.5797,0.5796,0.5796,0.5845,0.5846,0.5928,0.5834,0.5819,0.5826,0.5822,0.5884,0.5891,0.5912,0.6018,0.6022,0.5928,0.5932,0.5934,0.5936,0,0,0,0,0,0,0,0.5695,0.5708,0.5839,0.5798,0.5797,0.5784,0.5791,0.5861,0.587,0.582,0.5816,0.5825,0.5883,0.5906,0.5913,0.6023,0.5928,0.5933,0.5937,0.594,0.6214,0.6218,0,0,0,0,0,0,0.5691,0.5704,0.5836,0.5841,0.5739,0.579,0.5798,0.5832,0.5869,0.5871,0.5828,0.5823,0.5898,0.5906,0.5916,0.6039,0.5934,0.594,0.5944,0.6211,0.6215,0.6219,0,0,0,0,0,0,0.5688,0.5704,0.5834,0.5771,0.5787,0.5797,0.5836,0.5836,0.5858,0.5875,0.5876,0.585,0.5895,0.5907,0.5989,0.6041,0.5943,0.5949,0.6207,0.6212,0.6217,0.6288,0,0,0,0,0,0,0.5683,0.5703,0.5744,0.5773,0.579,0.5907,0.5839,0.584,0.5869,0.5863,0.5896,0.5898,0.5893,0.5981,0.5996,0.6047,0.5953,0.6202,0.6209,0.6215,0.6281,0.6295,0.6307,0,0,0,0,0,0.5676,0.5762,0.5746,0.5762,0.5842,0.591,0.592,0.5912,0.5874,0.5914,0.5924,0.5897,0.6033,0.5989,0.6006,0.606,0.6199,0.6207,0.6215,0.6275,0.6292,0.6307,0,0,0,0,0,0,0.5741,0.5766,0.5748,0.5846,0.5876,0.5901,0.5952,0.5932,0.5974,0.5966,0.5955,0.5963,0.6048,0.6063,0.6014,0.6162,0.6109,0.6121,0.615,0.6166,0.6179,0.6172,0.5958,0,0,0,0,0,0.5766,0.5819,0.5838,0.5923,0.5938,0.5943,0.5972,0.5963,0.5994,0.6007,0.6023,0.6054,0.6103,0.6136,0.6182,0.6283,0.6287,0.6328,0.6341,0.6352,0.6362,0.6412,0.6429,0.6246,0.6246,0.6246,0,0,0.5819,0.584,0.5874,0.5936,0.5958,0.6012,0.5954,0.6015,0.6054,0.6016,0.6093,0.6106,0.614,0.6231,0.6271,0.6245,0.6413,0.6362,0.6371,0.6375,0.6422,0.6439,0.6454,0.6251,0.625,0.6249,0,0,0.5943,0.5966,0.6036,0.6058,0.6092,0.6093,0.611,0.6138,0.6144,0.6222,0.6193,0.624,0.6326,0.6349,0.6373,0.6501,0.6476,0.6517,0.6584,0.6633,0.6647,0.666,0.6702,0.6718,0.6527,0.6527,0.6527,0,0.6005,0.6085,0.6075,0.6136,0.6163,0.613,0.6199,0.6222,0.627,0.6288,0.6258,0.6362,0.6383,0.6476,0.6507,0.6529,0.6545,0.6512,0.6646,0.6659,0.667,0.671,0.6727,0.6531,0.6531,0.653,0.653,0,0.6158,0.6214,0.6267,0.6311,0.6344,0.641,0.6407,0.6442,0.643,0.6434,0.6511,0.6534,0.6582,0.6604,0.6594,0.6696,0.6678,0.6648,0.6594,0.6692,0.6729,0.6745,0.6538,0.6536,0.6535,0.6534,0,0,0.6326,0.636,0.638,0.6397,0.643,0.6473,0.6536,0.6582,0.6609,0.6643,0.6693,0.6765,0.6736,0.6762,0.6754,0.6797,0.6892,0.6761,0.6761,0.6781,0.7001,0.7021,0.7039,0.6877,0.688,0.6882,0.6996,0,0.6448,0.6557,0.6547,0.665,0.6699,0.6666,0.672,0.6746,0.6751,0.6793,0.6799,0.6848,0.6808,0.6823,0.6864,0.6872,0.6936,0.6864,0.6921,0.6923,0.6911,0.7059,0.7082,0.7189,0.7011,0.7014,0.7016,0,0.6607,0.6642,0.6749,0.677,0.679,0.6839,0.6878,0.6919,0.6946,0.6947,0.6974,0.6957,0.7018,0.6964,0.7047,0.6998,0.7021,0.7028,0.7032,0.7035,0.6974,0.7063,0.7223,0.7238,0.7039,0.7038,0.7036,0,0.6713,0.6788,0.686,0.6877,0.6905,0.6939,0.6952,0.6976,0.7002,0.7037,0.7053,0.7095,0.7118,0.7149,0.7143,0.7105,0.7226,0.7173,0.7226,0.7226,0.7251,0.7249,0.7414,0.7271,0.7271,0.7271,0.727,0,0.6849,0.6915,0.6908,0.6952,0.7024,0.7012,0.7083,0.7092,0.7112,0.7156,0.7132,0.7174,0.7164,0.7206,0.7202,0.7268,0.7279,0.728,0.7277,0.728,0.728,0.7293,0.7285,0.7275,0.7274,0.7273,0.7273,0,0.698,0.6979,0.7054,0.7073,0.7079,0.713,0.7146,0.7187,0.7189,0.7245,0.7257,0.7261,0.7307,0.7305,0.7359,0.7355,0.7436,0.7427,0.7427,0.7423,0.7476,0.7469,0.7653,0.7675,0.7521,0.7522,0.7523,0,0.7066,0.7115,0.7138,0.7165,0.7179,0.7224,0.725,0.724,0.7268,0.73,0.7336,0.738,0.7415,0.7491,0.7498,0.7538,0.7527,0.7588,0.7533,0.7533,0.7523,0.7519,0.7522,0.7599,0.76,0.7602,0.7603,0,0.7217,0.7213,0.7251,0.7289,0.732,0.7349,0.7376,0.74,0.7392,0.7424,0.7471,0.7498,0.755,0.7593,0.7631,0.7643,0.7621,0.762,0.7634,0.7636,0.7633,0.7631,0.7453,0.7616,0.7615,0.7614,0.7613,0.7612,0.7326,0.7366,0.7387,0.7429,0.7448,0.7472,0.751,0.7515,0.7554,0.7595,0.7587,0.7638,0.766,0.7707,0.7723,0.7762,0.774,0.7761,0.7766,0.7771,0.7774,0.7628,0.777,0.7769,0.7769,0.7769,0.7768,0,0.7472,0.7483,0.7522,0.7558,0.7591,0.7567,0.7594,0.7623,0.7668,0.769,0.7724,0.7775,0.7816,0.7825,0.7863,0.7893,0.7883,0.7903,0.7899,0.7901,0.7794,0.7777,0.7909,0.7909,0.7909,0.7909,0.7909,0.7909,0.7552,0.7617,0.7615,0.7688,0.7698,0.7747,0.7764,0.7786,0.7803,0.7861,0.7894,0.7899,0.7915,0.7954,0.7989,0.7991,0.8004,0.8028,0.8025,0.7924,0.791,0.7896,0.7879,0.8032,0.8032,0.8128,0.8129,0.813]}]]